When you browse on this site, cookies collect data to enhance your experience and personalize the content and advertising you see.
Visit our Privacy Policy to learn more. By continuing to use the site, you agree to this use of cookies and data.
  • In Netherlands
  • List of Countries
  • For 7 days
  • Water Temperature
  • Satellite Maps
  • Weather Map
  • Weather Widgets
  • user-avatar
    Login

    Hourly Weather Kacevichi

    Today, 21 February, Thursday

    Time Temperature Precipitation Wind Pressure Humidity
    00:00 -8°C° 0 mm 7 mps 733 mmHg 77%
    01:00 -8°C° 0 mm 6 mps 734 mmHg 78%
    02:00 -8°C° 0 mm 5 mps 734 mmHg 83%
    03:00 -8°C° 0 mm 5 mps 734 mmHg 82%
    04:00 -10°C° 0 mm 6 mps 735 mmHg 80%
    05:00 -11°C° 0 mm 7 mps 735 mmHg 79%
    06:00 -10°C° 0 mm 6 mps 735 mmHg 79%
    07:00 -11°C° 0 mm 6 mps 736 mmHg 79%
    08:00 -11°C° 0 mm 5 mps 736 mmHg 80%
    09:00 -11°C° 0 mm 6 mps 737 mmHg 78%
    10:00 -11°C° 0 mm 7 mps 738 mmHg 76%
    11:00 -11°C° 0 mm 8 mps 738 mmHg 73%
    12:00 -9°C° 0 mm 7 mps 739 mmHg 73%
    13:00 -9°C° 0 mm 7 mps 739 mmHg 72%
    14:00 -9°C° 0 mm 7 mps 740 mmHg 71%
    15:00 -9°C° 0 mm 7 mps 740 mmHg 72%
    16:00 -10°C° 0 mm 6 mps 740 mmHg 74%
    17:00 -11°C° 0 mm 5 mps 741 mmHg 75%
    18:00 -11°C° 0 mm 5 mps 741 mmHg 77%
    19:00 -12°C° 0 mm 5 mps 741 mmHg 78%
    20:00 -12°C° 0 mm 4 mps 742 mmHg 80%
    21:00 -12°C° 0 mm 4 mps 742 mmHg 80%
    22:00 -12°C° 0 mm 4 mps 742 mmHg 80%
    23:00 -14°C° 0 mm 4 mps 743 mmHg 81%

    Tomorrow, 22 February, Friday

    Time Temperature Precipitation Wind Pressure Humidity
    00:00 -14°C° 0 mm 4 mps 743 mmHg 81%
    01:00 -14°C° 0 mm 5 mps 744 mmHg 81%
    02:00 -14°C° 0 mm 5 mps 744 mmHg 81%
    03:00 -14°C° 0 mm 5 mps 745 mmHg 81%
    04:00 -14°C° 0 mm 5 mps 745 mmHg 81%
    05:00 -14°C° 0 mm 5 mps 745 mmHg 81%
    06:00 -15°C° 0 mm 6 mps 746 mmHg 80%
    07:00 -15°C° 0 mm 6 mps 746 mmHg 80%
    08:00 -15°C° 0 mm 6 mps 747 mmHg 79%
    09:00 -14°C° 0 mm 7 mps 747 mmHg 76%
    10:00 -13°C° 0 mm 8 mps 748 mmHg 73%
    11:00 -12°C° 0 mm 9 mps 748 mmHg 70%
    12:00 -12°C° 0 mm 8 mps 749 mmHg 68%
    13:00 -12°C° 0 mm 8 mps 749 mmHg 67%
    14:00 -11°C° 0 mm 8 mps 749 mmHg 65%
    15:00 -11°C° 0 mm 7 mps 750 mmHg 67%
    16:00 -11°C° 0 mm 6 mps 750 mmHg 69%
    17:00 -11°C° 0 mm 5 mps 751 mmHg 72%
    18:00 -12°C° 0 mm 5 mps 751 mmHg 74%
    19:00 -12°C° 0 mm 5 mps 752 mmHg 77%
    20:00 -12°C° 0 mm 5 mps 753 mmHg 79%
    21:00 -13°C° 0 mm 5 mps 753 mmHg 80%
    22:00 -12°C° 0 mm 4 mps 754 mmHg 82%
    23:00 -14°C° 0 mm 4 mps 754 mmHg 83%

    Day after tomorrow, 23 February, Saturday

    Time Temperature Precipitation Wind Pressure Humidity
    00:00 -14°C° 0 mm 4 mps 754 mmHg 85%
    01:00 -14°C° 0 mm 4 mps 755 mmHg 86%
    02:00 -15°C° 0 mm 4 mps 755 mmHg 87%
    03:00 -15°C° 0 mm 4 mps 756 mmHg 89%
    04:00 -15°C° 0 mm 4 mps 756 mmHg 90%
    05:00 -15°C° 0 mm 4 mps 756 mmHg 91%
    06:00 -14°C° 0 mm 3 mps 756 mmHg 91%
    07:00 -14°C° 0 mm 3 mps 757 mmHg 91%
    08:00 -14°C° 0 mm 3 mps 757 mmHg 91%
    09:00 -13°C° 0 mm 3 mps 757 mmHg 88%
    10:00 -12°C° 0 mm 3 mps 757 mmHg 84%
    11:00 -9°C° 0 mm 3 mps 757 mmHg 80%
    12:00 -8°C° 0 mm 3 mps 757 mmHg 77%
    13:00 -7°C° 0 mm 3 mps 757 mmHg 74%
    14:00 -7°C° 0 mm 3 mps 757 mmHg 71%
    15:00 -7°C° 0 mm 3 mps 756 mmHg 72%
    16:00 -7°C° 0 mm 3 mps 756 mmHg 72%
    17:00 -6°C° 0 mm 2 mps 756 mmHg 73%
    18:00 -7°C° 0 mm 3 mps 755 mmHg 74%
    19:00 -7°C° 0 mm 3 mps 755 mmHg 76%
    20:00 -7°C° 0 mm 3 mps 754 mmHg 77%
    21:00 -8°C° 0.2 mm 4 mps 754 mmHg 81%
    22:00 -8°C° 0.2 mm 4 mps 754 mmHg 84%
    23:00 -8°C° 0.2 mm 5 mps 753 mmHg 88%

    24 February, Sunday

    Time Temperature Precipitation Wind Pressure Humidity
    00:00 -8°C° 0.2 mm 4 mps 753 mmHg 89%
    01:00 -8°C° 0.2 mm 4 mps 753 mmHg 89%
    02:00 -7°C° 0.2 mm 4 mps 753 mmHg 90%
    03:00 -7°C° 0.1 mm 4 mps 752 mmHg 91%
    04:00 -7°C° 0.1 mm 4 mps 752 mmHg 91%
    05:00 -5°C° 0.1 mm 4 mps 752 mmHg 92%
    06:00 -5°C° 0 mm 4 mps 752 mmHg 92%
    07:00 -5°C° 0 mm 4 mps 752 mmHg 92%
    08:00 -5°C° 0 mm 3 mps 752 mmHg 92%
    09:00 -4°C° 0 mm 3 mps 752 mmHg 92%
    10:00 -4°C° 0 mm 3 mps 752 mmHg 92%
    11:00 -2°C° 0 mm 3 mps 752 mmHg 92%
    12:00 -2°C° 0 mm 3 mps 752 mmHg 92%
    13:00 -2°C° 0 mm 3 mps 751 mmHg 93%
    14:00 -1°C° 0 mm 3 mps 751 mmHg 94%
    15:00 -1°C° 0 mm 3 mps 751 mmHg 93%
    16:00 -1°C° 0 mm 3 mps 751 mmHg 93%
    17:00 -1°C° 0 mm 3 mps 751 mmHg 92%
    18:00 -1°C° 0 mm 3 mps 751 mmHg 92%
    19:00 -1°C° 0 mm 3 mps 751 mmHg 93%
    20:00 -1°C° 0 mm 3 mps 750 mmHg 93%
    21:00 -1°C° 0.1 mm 3 mps 750 mmHg 93%
    22:00 -2°C° 0.1 mm 4 mps 750 mmHg 93%
    23:00 -2°C° 0.1 mm 4 mps 750 mmHg 94%

    25 February, Monday

    Time Temperature Precipitation Wind Pressure Humidity
    00:00 -2°C° 0 mm 4 mps 749 mmHg 94%
    01:00 -3°C° 0 mm 4 mps 749 mmHg 94%
    02:00 -3°C° 0 mm 4 mps 749 mmHg 95%
    03:00 -3°C° 0 mm 4 mps 748 mmHg 95%
    04:00 -2°C° 0 mm 4 mps 748 mmHg 95%
    05:00 -2°C° 0 mm 5 mps 748 mmHg 95%
    06:00 -2°C° 0.1 mm 5 mps 747 mmHg 94%
    07:00 -1°C° 0.1 mm 5 mps 747 mmHg 94%
    08:00 -1°C° 0.1 mm 5 mps 747 mmHg 94%
    09:00 -1°C° 0 mm 5 mps 747 mmHg 94%
    10:00 -1°C° 0 mm 5 mps 747 mmHg 95%
    11:00 -2°C° 0 mm 6 mps 747 mmHg 96%
    12:00 -1°C° 0 mm 5 mps 747 mmHg 95%
    13:00 -1°C° 0 mm 5 mps 747 mmHg 94%
    14:00 -1°C° 0 mm 5 mps 747 mmHg 93%
    15:00 -1°C° 0 mm 5 mps 746 mmHg 89%
    16:00 -1°C° 0 mm 5 mps 746 mmHg 85%
    17:00 -1°C° 0 mm 5 mps 746 mmHg 81%
    18:00 -1°C° 0 mm 5 mps 746 mmHg 82%
    19:00 -2°C° 0 mm 5 mps 746 mmHg 83%
    20:00 -2°C° 0 mm 5 mps 745 mmHg 83%
    21:00 -2°C° 0 mm 5 mps 745 mmHg 85%
    22:00 -4°C° 0 mm 5 mps 745 mmHg 86%
    23:00 -4°C° 0 mm 5 mps 745 mmHg 87%

    26 February, Tuesday

    Time Temperature Precipitation Wind Pressure Humidity
    00:00 -4°C° 0 mm 5 mps 744 mmHg 88%
    01:00 -4°C° 0 mm 4 mps 744 mmHg 89%
    02:00 -4°C° 0 mm 4 mps 744 mmHg 90%
    03:00 -4°C° 0 mm 4 mps 743 mmHg 91%
    04:00 -4°C° 0 mm 4 mps 742 mmHg 92%
    05:00 -4°C° 0 mm 4 mps 742 mmHg 93%
    06:00 -4°C° 0 mm 4 mps 741 mmHg 93%
    07:00 -3°C° 0 mm 4 mps 741 mmHg 93%
    08:00 -3°C° 0 mm 4 mps 740 mmHg 93%
    09:00 -2°C° 0 mm 4 mps 739 mmHg 94%
    10:00 -2°C° 0 mm 4 mps 739 mmHg 94%
    11:00 -1°C° 0 mm 4 mps 738 mmHg 95%
    12:00 -1°C° 0.2 mm 4 mps 737 mmHg 95%
    13:00 -1°C° 0.2 mm 4 mps 736 mmHg 95%
    14:00 -1°C° 0.2 mm 4 mps 735 mmHg 95%
    15:00 -1°C° 0.6 mm 4 mps 735 mmHg 94%
    16:00 -1°C° 0.6 mm 4 mps 734 mmHg 93%
    17:00 -1°C° 0.6 mm 5 mps 733 mmHg 92%
    18:00 -1°C° 0.3 mm 5 mps 733 mmHg 92%
    19:00 -1°C° 0.3 mm 5 mps 733 mmHg 92%
    20:00 -1°C° 0.3 mm 5 mps 733 mmHg 92%
    21:00 -2°C° 0.2 mm 6 mps 734 mmHg 91%
    22:00 -2°C° 0.2 mm 6 mps 735 mmHg 91%
    23:00 -3°C° 0.2 mm 6 mps 736 mmHg 90%
    Show more